SCP
0 0 0 0 0 0 0 0 0 0 0 0 0 0 0 0 0 0 0 0 0 0 0 0 0 0 0 0 0 0 0 0 0 0 0 0 0 0 0 0 0 0 0 0
0 0 0 0 0 0 0 0 0 0 0 0 0 0 0 0 0 0 0 0 0 0 0 0 0 0 0 0 0 0 0 0 0 0 0 0 0 0 0 0 0 0 0 0
0 0 0 0 0 0 0 0 0 0 0 0 0 0 0 0 0 0 0 0 0 0 0 0 0 0 0 0 0 0 0 0 0 0 0 0 0 0 0 0 0 0 0 0
0 0 0 0 0 0 0 0 0 0 0 0 0 0 0 0 0 0 0 0 0 0 0 0 0 0 0 0 0 0 0 0 0 0 0 0 0 0 0 0 0 0 0 0
0 0 0 0 0 0 0 0 0 0 0 0 0 0 0 0 0 0 0 0 0 0 0 0 0 0 0 0 0 0 0 0 0 0 0 0 0 0 0 0 0 0 0 0
0 0 0 0 0 0 0 0 0 0 0 0 0 0 0 0 0 0 0 0 0 0 0 0 0 0 0 0 0 0 0 0 0 0 0 0 0 0 0 0 0 0 0 0
0 0 0 0 0 0 0 0 0 0 0 0 0 0 0 0 0 0 0 0 0 0 0 0 0 0 0 0 0 0 0 0 0 0 0 0 0 0 0 0 0 0 0 0
0 0 0 0 0 0 0 0 0 0 0 0 0 0 0 0 0 0 0 0 0 0 0 0 0 0 0 0 0 0 0 0 0 0 0 0 0 0 0 0 0 0 0 0
0 0 0 0 0 0 0 0 0 0 0 0 0 0 0 0 0 0 0 0 0 0 0 0 0 0 0 0 0 0 0 0 0 0 0 0 0 0 0 0 0 0 0 0
0 0 0 0 0 0 0 0 0 0 0 0 0 0 0 0 0 0 0 0 0 0 0 0 0 0 0 0 0 0 0 0 0 0 0 0 0 0 0 0 0 0 0 0
0 0 0 0 0 0 0 0 0 0 0 0 0 0 0 0 0 0 0 0 0 0 0 0 0 0 0 0 0 0 0 0 0 0 0 0 0 0 0 0 0 0 0 0
0 0 0 0 0 0 0 0 0 0 0 0 0 0 0 0 0 0 0 0 0 0 0 0 0 0 0 0 0 0 0 0 0 0 0 0 0 0 0 0 0 0 0 0
0 0 0 0 0 0 0 0 0 0 0 0 0 0 0 0 0 0 0 0 0 0 0 0 0 0 0 0 0 0 0 0 0 0 0 0 0 0 0 0 0 0 0 0
0 0 0 0 0 0 0 0 0 0 0 0 0 0 0 0 0 0 0 0 0 0 0 0 0 0 0 0 0 0 0 0 0 0 0 0 0 0 0 0 0 0 0 0
0 0 0 0 0 0 0 0 0 0 0 0 0 0 0 0 0 0 0 0 0 0 0 0 0 0 0 0 0 0 0 0 0 0 0 0 0 0 0 0 0 0 0 0
0 0 0 0 0 0 0 0 0 0 0 0 0 0 0 0 0 0 0 0 0 0 0 0 0 0 0 0 0 0 0 0 0 0 0 0 0 0 0 0 0 0 0 0
0 0 0 0 0 0 0 0 0 0 0 0 0 0 0 0 0 0 0 0 0 0 0 0 0 0 0 0 0 0 0 0 0 0 0 0 0 0 0 0 0 0 0 0
0 0 0 0 0 0 0 0 0 0 0 0 0 0 0 0 0 0 0 0 0 0 0 0 0 0 0 0 0 0 0 0 0 0 0 0 0 0 0 0 0 0 0 0
-0 -0 -0 -0 0 0 0 0 0 0 0 0 0 0 0 0 0 0 0 0 0 0 0 0 0 0 0 0 0 0 0 0 0 0 0 0 0 0 0 0 0 0 0 0
-0 -0 -0 -0 0 0 0 0 0 0 0 0 0 0 0 0 0 0 0 0 0 0 0 0 0 0 0 0 0 0 0 0 0 0 0 0 0 0 0 0 0 0 0 0
0 0 0 0 0 0 0 0 0 0 0 0 0 0 0 0 0 0 0 0 0 0 0 0 0 0 0 0 0 0 0 0 0 0 0 0 0 0 0 0 0 0 0 0
0 0 0 0 0 0 0 0 0 0 0 0 0 0 0 0 0 0 0 0 0 0 0 0 0 0 0 0 0 0 0 0 0 0 0 0 0 0 0 0 0 0 0 0
0 0 0 0 0 0 0 0 0 0 0 0 0 0 0 0 0 0 0 0 0 0 0 0 0 0 0 0 0 0 0 0 0 0 0 0 0 0 0 0 0 0 0 0
0 0 0 0 0 0 0 0 0 0 0 0 0 0 0 0 0 0 0 0 0 0 0 0 0 0 0 0 0 0 0 0 0 0 0 0 0 0 0 0 0 0 0 0
0 0 0 0 0 0 0 0 0 0 0 0 0 0 0 0 0 0 0 0 0 0 0 0 0 0 0 0 0 0 0 0 0 0 0 0 0 0 0 0 0 0 0 0
0 0 0 0 0 0 0 0 0 0 0 0 0 0 0 0 0 0 0 0 0 0 0 0 0 0 0 0 0 0 0 0 0 0 0 0 0 0 0 0 0 0 0 0
0 0 0 0 0 0 0 0 0 0 0 0 0 0 0 0 0 0 0 0 0 0 0 0 0 0 0 0 0 0 0 0 0 0 0 0 0 0 0 0 0 0 0 -0
Wind_Speed
7 6 5 9 12 8 9 10 10 11 11 11 6 3 3 3 3 4 5 6 6 6 7 7 7 8 7 8 8 8 8 9 10 10 10 10 10 10 10 10 10 10 11 11
4 5 7 12 15 11 10 9 10 9 9 4 2 1 3 3 3 4 6 7 7 8 8 8 8 9 8 8 8 8 9 10 11 11 11 11 11 11 10 10 10 10 11 12
5 4 6 10 8 5 4 3 4 4 3 2 3 4 4 3 3 5 7 8 9 9 9 9 9 8 9 8 9 9 10 11 11 11 12 12 12 11 11 11 10 11 11 11
2 2 8 9 2 2 2 0 1 2 1 1 3 5 4 2 3 6 8 8 8 8 9 9 8 9 9 9 10 10 11 11 11 12 12 12 11 11 12 10 10 10 11 11
3 3 10 10 4 1 2 1 2 1 2 3 5 4 3 3 4 6 8 9 9 9 9 9 9 10 10 11 10 11 12 12 12 12 14 13 12 12 12 11 10 10 10 11
5 4 9 8 3 2 1 2 1 1 3 4 5 6 5 5 7 9 10 9 9 8 8 9 10 10 11 12 12 13 13 13 13 12 13 14 14 13 11 10 11 11 11 10
5 6 11 7 4 1 2 4 1 2 2 3 3 6 8 9 9 8 9 10 9 9 8 9 11 11 12 13 13 14 14 13 13 13 13 13 13 11 11 11 11 11 12 10
5 5 11 3 2 3 3 1 1 2 3 5 7 9 8 8 9 9 9 9 9 9 11 10 10 11 14 15 15 14 14 14 14 13 12 12 12 12 11 11 12 11 11 10
10 8 2 2 4 2 2 2 3 4 5 6 6 7 7 7 8 9 9 10 10 11 13 12 10 10 14 16 15 15 14 14 13 13 12 11 12 13 12 10 10 10 9 9
4 4 2 3 3 1 2 3 4 4 5 4 5 7 8 9 9 10 10 11 11 12 14 15 13 12 13 15 14 14 15 14 13 13 13 11 10 9 10 9 10 10 10 10
4 3 1 1 1 2 2 2 3 3 3 4 6 8 9 9 11 11 11 10 10 12 14 17 16 15 13 13 13 14 14 14 13 12 12 12 10 9 11 10 12 13 10 8
6 4 3 4 3 2 2 3 4 4 5 6 6 8 10 10 10 11 12 12 13 13 14 16 15 15 14 12 12 14 14 13 11 11 11 10 11 11 13 15 21 21 19 16
3 2 3 3 2 2 2 3 4 5 6 8 8 9 10 11 10 11 13 13 14 15 15 15 16 16 15 13 12 13 14 14 12 11 10 10 10 11 12 13 16 17 18 18
1 1 1 2 3 3 3 4 5 6 7 8 9 10 10 12 12 13 14 14 14 14 15 15 16 16 15 14 13 14 14 15 14 11 10 10 10 10 10 11 11 9 11 15
1 1 3 3 3 4 4 5 7 8 9 10 9 10 11 13 14 15 14 13 13 14 14 15 16 17 15 14 13 14 13 11 11 10 10 10 9 9 9 10 10 10 8 9
2 2 2 3 5 5 6 7 8 9 10 11 12 12 12 12 13 14 13 12 13 15 15 15 16 16 15 14 14 12 11 18 17 11 10 9 9 9 9 9 9 8 8 8
1 3 3 5 6 7 7 8 9 10 11 12 13 13 13 13 14 14 13 12 11 13 14 14 16 15 14 13 13 11 10 12 18 13 9 9 9 9 9 9 8 8 7 9
2 3 4 5 7 8 10 10 10 11 12 13 13 13 13 14 15 16 15 14 13 13 12 12 13 15 13 13 12 10 10 10 9 9 9 9 9 8 8 9 9 9 8 8
3 5 6 7 8 9 10 11 12 11 11 11 12 13 13 13 13 14 14 14 15 15 13 11 21 17 13 14 17 9 10 10 9 9 9 12 11 8 8 8 8 8 8 7
5 7 8 9 9 9 11 12 12 12 11 11 11 13 14 13 12 13 13 12 10 11 13 16 15 11 12 13 18 9 9 9 9 9 9 8 9 9 8 8 8 8 7 6
8 9 10 10 11 11 11 11 12 13 13 11 11 13 14 14 12 11 12 13 11 10 13 19 12 10 11 14 17 9 8 9 9 9 9 9 9 9 8 8 7 7 6 6
8 9 10 11 11 11 10 10 10 12 13 12 12 12 12 13 12 11 10 10 11 17 14 9 9 15 20 21 9 8 8 9 9 8 8 8 8 8 8 8 7 6 6 5
9 9 10 11 11 12 12 10 10 11 12 12 12 12 12 11 9 10 12 9 9 18 14 9 17 25 27 14 8 9 9 9 9 8 8 8 8 7 7 7 6 6 5 5
10 10 10 10 10 10 12 12 11 10 10 11 11 11 11 10 9 7 8 15 19 21 12 15 24 25 23 9 8 8 8 9 9 8 8 8 7 6 6 6 5 5 5 5
10 10 10 10 10 9 11 11 11 10 10 8 9 10 8 7 8 9 9 10 17 19 11 15 22 23 14 9 9 9 8 9 9 9 8 8 7 6 6 5 5 5 4 4
10 9 9 10 9 9 8 8 8 8 8 9 9 7 7 6 8 8 8 10 12 17 12 10 11 13 9 9 9 9 9 10 10 8 8 8 7 6 5 5 5 4 4 4
9 8 8 8 8 7 7 7 8 9 8 8 10 9 8 8 8 8 10 9 9 9 9 9 9 9 9 9 9 9 9 8 8 8 7 7 6 5 5 5 4 4 4 4
Wind_Direction
248 259 260 258 264 250 224 216 229 252 260 280 291 290 303 325 346 359 344 334 325 313 304 302 304 303 301 300 301 303 301 297 293 292 289 286 285 283 280 277 276 273 272 270
277 271 275 275 270 258 247 234 235 258 272 291 315 3 348 349 357 343 325 315 308 305 305 304 302 302 303 302 301 302 298 295 295 295 293 290 288 285 282 279 277 276 273 273
272 306 333 280 258 225 225 229 212 229 263 353 357 342 319 316 325 313 309 305 305 304 300 299 299 300 302 299 301 301 297 296 296 295 293 291 289 287 285 283 280 279 276 273
253 356 252 246 237 204 186 322 57 101 41 341 297 285 272 257 313 308 305 305 304 303 302 301 300 302 301 301 303 301 299 298 297 296 295 293 288 286 285 282 280 280 279 277
164 235 277 292 293 197 176 179 55 79 331 312 300 309 289 282 320 306 304 303 300 298 298 301 304 305 307 307 305 303 302 300 299 298 297 296 293 290 288 286 284 280 280 279
157 196 244 252 279 305 98 232 342 28 342 332 354 342 292 305 311 302 301 300 302 303 303 305 306 309 309 308 308 305 303 301 299 297 296 295 293 292 290 286 285 285 283 278
182 218 260 262 291 45 194 262 304 329 319 315 285 254 275 297 297 294 298 301 304 304 303 302 305 309 307 307 305 302 301 300 299 297 294 293 293 292 291 290 288 286 284 280
164 201 253 280 82 130 214 242 258 279 275 272 267 274 286 295 300 308 309 308 308 307 306 305 304 305 305 305 303 302 301 300 300 298 296 297 294 295 292 290 291 289 287 285
189 210 209 94 124 143 173 235 255 261 269 273 282 291 299 300 304 305 305 305 306 305 306 307 303 299 299 302 305 305 303 301 300 299 296 293 294 296 297 293 291 291 289 288
231 254 170 137 141 169 216 230 249 259 272 286 292 298 304 304 305 306 304 305 306 307 308 309 308 301 295 300 304 304 303 303 301 301 300 297 293 292 292 293 292 291 290 289
253 266 169 197 212 231 257 276 287 294 292 297 302 304 302 303 304 304 304 302 301 302 303 304 306 305 303 303 305 304 303 302 302 300 300 301 296 292 292 284 285 292 290 288
234 220 199 244 247 247 286 302 304 309 311 307 301 297 299 300 298 299 302 303 304 302 301 304 307 308 308 307 305 305 306 306 304 302 301 300 301 301 294 293 300 301 298 294
201 199 204 231 240 253 271 288 292 291 290 295 295 290 293 295 294 296 299 301 302 303 304 305 307 308 309 309 307 303 302 304 303 301 302 303 303 304 306 306 303 303 302 300
185 167 216 236 259 282 288 292 296 295 289 285 286 289 292 294 295 297 299 299 300 301 304 305 307 307 308 308 306 303 303 303 304 301 301 300 300 300 301 304 307 305 304 306
273 220 235 267 294 306 310 313 312 306 299 296 291 291 293 296 298 298 298 299 301 302 304 306 307 307 309 308 306 304 304 302 302 301 300 299 299 299 298 297 297 300 301 304
285 318 316 308 306 307 311 310 303 297 297 297 298 297 294 291 292 295 297 300 303 305 306 306 304 305 307 307 306 305 302 305 310 307 304 303 302 300 299 299 298 299 301 302
282 313 314 310 305 300 294 287 284 287 292 295 296 298 299 300 301 301 302 301 295 294 297 299 300 303 304 304 304 304 302 303 308 308 301 300 300 299 299 299 300 300 298 299
235 259 268 273 280 288 291 290 287 288 289 290 294 298 300 302 303 303 304 306 304 301 296 293 297 306 305 305 304 301 301 300 300 301 300 301 302 299 299 300 300 299 300 302
306 293 289 286 283 282 284 288 289 286 286 290 293 295 295 295 295 297 302 305 307 307 306 303 310 314 307 305 308 301 299 300 302 301 300 304 306 301 300 301 300 299 300 301
298 292 291 289 287 283 283 286 288 290 290 291 292 295 298 298 297 299 301 298 291 290 299 306 310 308 308 306 309 303 303 303 304 304 303 302 301 302 303 303 303 303 301 301
290 288 287 285 285 283 282 285 290 292 293 292 290 292 294 296 297 297 300 302 299 297 304 311 314 309 309 311 314 310 306 304 303 303 303 303 304 305 305 305 306 306 305 304
281 282 284 285 287 290 289 286 286 289 292 292 289 289 293 297 298 296 286 287 297 308 314 307 307 311 317 321 315 310 307 305 304 303 303 304 304 304 306 308 307 307 305 304
281 282 284 286 287 290 293 291 286 286 287 288 290 292 292 292 295 299 303 302 303 312 316 305 312 318 322 324 313 309 308 307 306 305 303 302 302 304 306 307 305 304 303 303
285 286 285 285 288 290 293 293 290 287 283 284 283 282 285 293 294 286 285 302 312 315 312 310 318 322 326 321 311 309 309 308 305 303 303 303 301 303 304 304 303 301 301 303
284 285 286 288 289 287 287 292 295 292 288 287 286 283 279 278 286 296 298 299 308 315 312 314 318 321 322 312 311 310 309 306 306 308 305 305 304 306 305 303 301 300 302 303
284 285 284 280 278 282 286 289 290 293 295 296 296 293 290 289 288 293 297 300 301 310 313 309 309 315 315 311 310 311 310 309 309 308 305 305 306 306 303 301 301 300 300 301
284 283 284 286 284 278 278 282 286 289 291 291 296 297 297 298 298 299 301 304 305 307 307 308 310 312 311 311 311 311 311 309 307 306 307 308 306 303 301 299 298 298 300 300